850  
ASUS42 KTAE 260515  
RWRTAE  
RWRTAE  
NORTH FLORIDA/SOUTH ALABAMA/SOUTHWEST GEORGIA WEATHER ROUNDUP  
NATIONAL WEATHER SERVICE TALLAHASSEE FLORIDA  
100 AM EDT FRI APR 26 2019  
 
NOTE: "FAIR" INDICATES FEW OR NO CLOUDS BELOW 12,000 FEET WITH NO  
SIGNIFICANT WEATHER AND/OR S TO VISIBILITY
.  
 
!FLZ017-115-028-034-025-260600   
..NORTH FLORIDA
 
 
 
CITY SKY/WX TMP DP RH WIND PRES REMARKS
 
TALL INTL ARPT LGT RAIN 63 63 100 E10 29.89F  
FSU LOVE BLDG N/A N/A N/A N/A MISG N/A  
APALACHICOLA NOT AVBL  
PERRY CLOUDY 71 70 96 CALM 29.96R  
CROSS CITY FAIR 71 69 90 SW6 29.93S  
JACKSONVILLE CLOUDY 71 64 78 SW6 29.92S  

 
 
!FLZ112-006-005-002-011-260600   
..FLORIDA PANHANDLE
 
 
 
CITY SKY/WX TMP DP RH WIND PRES REMARKS
 
MARIANNA FAIR 63 62 97 CALM 29.81F  
BONIFAY NOT AVBL  
PANAMA CITY NW MOCLDY 64 62 93 S5 29.83S  
TYNDALL AFB FAIR 65 63 93 SE6 29.84R  
TYND DRONE APT NOT AVBL  
DE FUNIAK SPR NOT AVBL  
EGLIN AFB FAIR 64 64 100 CALM 29.84F  
DESTIN CLOUDY 66 64 93 SE3 29.84F  
HURLBURT PTCLDY 66 65 98 SE5 29.83F  
CRESTVIEW CLOUDY 62 60 93 MISG 29.86F  
PENSACOLA CLOUDY 65 65 100 N6 29.85S  

 
 
!ALZ063-066-260600   
..SOUTH ALABAMA
 
 
 
CITY SKY/WX TMP DP RH WIND PRES REMARKS
 
DOTHAN FAIR 61 59 93 SE3 29.85F  
OZARK CAIRNS MOCLDY 61 59 95 CALM 29.83S  
FT RUCKER HELI MOCLDY 61 60 98 CALM 29.83S  
RUCKER HELI 3 CLOUDY 61 60 97 S3 29.82S  
RUCKER HELI 2 MOCLDY 61 61 100 CALM 29.82S  
FLORALA APT MOCLDY 62 59 90 S3 29.86S  
ANDALUSIA MOCLDY 63 59 87 CALM 29.84F  
TROY FAIR 59 59 100 CALM 29.85R  
EUFALA NOT AVBL  
MOBILE CLOUDY 64 64 100 N3 29.87S  

 
 
!GAZ120>161-260600   
..SOUTHWEST AND SOUTH CENTRAL GEORGIA
 
 
 
CITY SKY/WX TMP DP RH WIND PRES REMARKS
 
THOMASVILLE RAIN 61 61 100 CALM 29.98R  
BAINBRIDGE N/A 63 59 88 MISG 29.81F  
MOODY AFB TSTM 69 69 98 SW6 29.93S FOG  
VALDOSTA HVY RAIN 67 66 97 CALM 29.95R FOG  
MOULTRIE RAIN 61 59 94 W3 29.97F  
BLAKELY FAIR 59 57 94 CALM 29.84F  
ALBANY FAIR 63 60 90 E6 29.86F  
TIFTON RAIN N/A N/A N/A NW9 29.96  
FITZGERALD CLOUDY 67 62 84 W13 29.98R  
CORDELE LGT RAIN 62 61 96 SE5 29.88F  
AMERICUS MOCLDY 63 61 94 SE8 29.87S  
HOMERVILLE NOT AVBL  

 
 
!GMZ750-755-770-775-260600   
..COASTAL AND BUOY OBS
 
 
 
STATION/POSITION TIME TEMP WIND PRES VSBY WAVE
 
AIR SEA DIR/SP/G HT/PER  
(UTC) (F) (DEG/KT/KT) (MB) (MI) (FT/S)  
KEATON BEACH 0500 72 10/ 3/ 4 1013.3R  
CEDAR KEY 0500 74 210/ 14/ 19 1013.3F  
C TOWER NOT AVBL  
APALACHICOLA BUO NOT AVBL  
PANAMA CITY BUOY NOT AVBL  
MOBILE BUOY 0450 260/ 14/ 17 1012.1R 5/ 6  
ORANGE BCH AL BU 0440 1011.1  

 
 
 
CLICK HERE TO GO TO PREVIOUS BULLETINS.

The Nexlab FL Page
The Nexlab GA Page
The Nexlab AL Page Main Text Page